Location: Newark
(54.8972°N, 99.8189°W)
Time: 13:10:26
(UTC+00:00)

Transit 2A - Pass Details

Date: 15 November 2019
Orbit: 602 x 957 km, 66.7° (Epoch: 07 December)

Event Time Altitude Azimuth Distance (km) Brightness Sun altitude
Rises 00:55:37 0° 305° (NW) 2,955 9.9 -19.5°
Reaches altitude 10° 00:58:31 10° 323° (NW) 2,005 8.6 -19.9°
Maximum altitude 01:01:46 19° 10° (N) 1,460 7.3 -20.4°
Enters shadow 01:02:09 19° 17° (NNE) 1,466 7.3 -20.4°
